Location: *
(51.4660°N, 0.3360°W)
Time: 23:31:54
(UTC+00:00)

Cosmos 1850 Rocket - Pass Details

Date: 19 September 2019
Orbit: 755 x 785 km, 74.0° (Epoch: 22 October)

Event Time Altitude Azimuth Distance (km) Brightness Sun altitude
Rises 20:38:49 0° 335° (NNW) 3,225 8.2 -22.9°
Reaches altitude 10° 20:41:11 10° 336° (NNW) 2,294 7.3 -23.2°
Maximum altitude 20:46:24 87° 66° (ENE) 764 3.8 -23.9°
Enters shadow 20:47:09 66° 149° (SSE) 824 3.8 -24.0°
